Terug naar catalogus

SL-12 R/B

AUX MOTOR

ActiefHEO
NORAD 20631·ROCKET BODY·🇷🇺 Russia

Gelanceerd May 19, 1990 vanaf Baikonur Cosmodrome

Loading…

Volgende Passages (komende 24 uur)

TLE

VersSource: Space-Track

Epoch: Sep 13, 2026, 16:06 UTC

1 20631U 90045G   26256.67111837  .00000071  00000-0  46062-3 0  9994
2 20631  64.9387  12.1413 5507805 131.4221 291.1585  4.52138834581044

Volg SL-12 R/B in realtime met AllMySat

Download on the App Store